GAOFEN-13 01

Last updated on Thu Oct 30 2025 00:02:51 GMT+0000 (Coordinated Universal Time)

1 46610U 20071A 25302.20900642 -.00000353 00000+0 00000+0 0 9992 2 46610 0.0652 64.5256 0038910 136.9739 29.7462 1.00275924 18604
UTC large
Height (km)
Speed (km/s)
/
Latitude / Longitude
Inclination (degrees)
Orbital Period (minutes)
Azimuth
Elevation
Range (km)
Doppler Factor

Next 0 passes for location: London (51.5072 / 0.1276)

Sorry there are no passes over London.